Flag Weather past 2 weeks in Cocoa Beach, Florida, U.S.A.

Now
66 °F

Clear.


Feels Like: 66 °F
Forecast: 54 / 66 °F
Wind: 15 mph from West

Location: Cocoa / Patrick Air Force Base

Current Time: Oct 31, 2014 at 11:26:20 PM

Latest Report: Oct 31, 2014 at 10:58 PM


Visibility: 10 mi

Pressure: 29.89 "Hg

Humidity: 64%

Dew point: 54 °F

Location of Cocoa BeachLocation

Historic Weather in Cocoa Beach — Graph

°F

Cocoa Beach temperature yesterday

Maximum temperature yesterday: 82 °F (at 1:58 PM)
Minimum temperature yesterday: 69 °F (at 6:58 AM)
Average temperature yesterday: 75 °F

Past Weeks' High & Low Weather Summary

 TemperatureHumidityPressure
High83 °F (Oct 18, 3:58 PM)98% (Oct 22, 6:58 AM)30.19 "Hg (Oct 22, 6:58 AM)
Low65 °F (Oct 27, 4:58 AM)36% (Oct 31, 6:58 PM)29.78 "Hg (Oct 31, 2:58 PM)
Average75 °F70%29.99 "Hg
* Reported Oct 16 9:58 PM — Oct 31 9:58 PM, Cocoa Beach, Weather by CustomWeather, © 2014

Note: Actual official high and low records may vary slightly from our data, if they occured in-between our weather recording intervals... More about our weather records

Advertising

Cocoa Beach weather history for previous 24 hours

 ConditionsComfort  
Time TempWeatherWind HumidityBarometerVisibility
9:58 PM
Oct 31
69 °FClear.15 mph60%29.88 "Hg10 mi
8:58 PM71 °FClear.13 mph51%29.86 "Hg10 mi
7:58 PM72 °FClear.15 mph47%29.84 "Hg10 mi
6:58 PM74 °FSunny.13 mph36%29.82 "Hg10 mi
5:58 PM77 °FSunny.15 mph37%29.80 "Hg10 mi
4:58 PM79 °FSunny.14 mph40%29.78 "Hg10 mi
3:58 PM81 °FSunny.15 mph44%29.78 "Hg10 mi
2:58 PM81 °FScattered clouds.16 mph48%29.78 "Hg10 mi
1:58 PM80 °FBroken clouds.13 mph59%29.79 "Hg10 mi
12:58 PM79 °FSunny.10 mph62%29.82 "Hg10 mi
11:58 AM78 °FSunny.12 mph71%29.85 "Hg10 mi
10:58 AM75 °FPassing clouds.6 mph81%29.86 "Hg10 mi
9:58 AM72 °FPassing clouds.8 mph85%29.88 "Hg10 mi
8:58 AM71 °FPassing clouds.8 mph90%29.86 "Hg10 mi
7:58 AM71 °FPassing clouds.8 mph92%29.86 "Hg10 mi
6:58 AM72 °FMostly cloudy.5 mph90%29.84 "Hg10 mi
5:58 AM72 °FPassing clouds.6 mph87%29.83 "Hg10 mi
4:58 AM71 °FPassing clouds.3 mph90%29.83 "Hg10 mi
3:58 AM70 °FPassing clouds.No wind93%29.84 "Hg10 mi
2:58 AM71 °FMostly cloudy.3 mph91%29.86 "Hg10 mi
2:03 AM72 °FRain. Mostly cloudy.7 mph83%29.87 "Hg5 mi
12:59 AM75 °FThundershowers. Partly cloudy.14 mph78%29.87 "Hg10 mi
11:58 PM
Oct 30
76 °FPassing clouds.No wind72%29.89 "Hg10 mi
Weather by CustomWeather, © 2014

See weather overviewHow to use our weather pages